User: anonymous
Location: Santa Teresa Spring
(37.2333°N, 121.7000°W)
Time: 20:32:57
(UTC-07:00)
Language:

Cosmos 1633 - Orbit

View from above orbital plane
View from above orbital plane
View from above satellite
View from above satellite

Ground track
Ground track

The orbit data is extracted from the following two-line orbital elements,

1 15592U 85020A   14203.75746115  .00001075  00000-0  49806-4 0  5016
2 15592 082.5427 296.0690 0016102 308.8283 166.2712 15.18920982602688
Epoch (UTC): 22 July 2014 18:10:44
Eccentricity: 0.0016102
inclination: 82.5427°
perigee height: 498 km
apogee height: 520 km
right ascension of ascending node: 296.0690°
argument of perigee: 308.8283°
revolutions per day: 15.18920982
mean anomaly at epoch: 166.2712°
orbit number at epoch: 60268

The dashed part of the orbit path shows where the satellite is in the earth's shadow,  

DLR